Main page
METAR-TAF:

METAR-TAF

Airports :

Fort Morgan Municipal Airport

Fort Morgan, Colorado, United States

latitude: 40-20-02N, longitude: 103-48-15W, elevation: 4569 ft

Current weather observation

The report was made 22 minutes ago, at 15:15 UTC
Wind 8 mph from the West/Southwest
Temperature 36°F
Humidity 93%
Pressure 30.36 in. Hg
Visibility: 10 miles
Overcast at a height of 1300 ft

METAR: KFMM 211515Z AUTO 25007KT 10SM OVC013 02/01 A3036 RMK AO2

Time: 09:37 (15:37 UTC)


TAF: missing

Weather observations and forecasts of more than 4000 airports (METAR and TAF reports).

The available stations are represented by yellow and red dots on the map.

Hover mouse over dot to see the name of the station.

Then click to see weather observations and forecasts.

To change the map : click on the green buttons with a black cross to zoom in, on the green button with a dash to zoom out, or on the green arrows for adjacent maps.


METAR-TAF: